Location: Newark
(42.8481°N, 0.4872°E)
Time: 23:51:22
(UTC+00:00)

Explorer 7 - Visible Passes

Search period start: 26 October 2020 00:00
Search period end: 05 November 2020 00:00
Orbit: 484 x 678 km, 50.3° (Epoch: 26 October)

Date Brightness Start Highest point End Pass type
(mag) Time Alt. Az. Time Alt. Az. Time Alt. Az.
26 Oct 7.4 18:43:15 10° NW 18:47:02 39° NNE 18:47:13 39° NNE visible
27 Oct 7.1 18:47:56 10° NW 18:51:47 51° NNE 18:51:47 51° NNE visible
28 Oct 6.8 18:52:36 10° WNW 18:56:24 70° N 18:56:24 70° N visible
29 Oct 7.7 17:17:00 10° NW 17:20:33 33° NNE 17:24:17 10° E visible
29 Oct 6.8 18:57:18 10° WNW 19:01:07 75° WSW 19:01:07 75° WSW visible
30 Oct 7.3 17:21:41 10° NW 17:25:23 41° NNE 17:29:17 10° E visible
30 Oct 7.4 19:02:05 10° WNW 19:05:56 49° SW 19:05:56 49° SW visible
31 Oct 6.9 17:26:21 10° NW 17:30:11 55° NNE 17:34:13 10° ESE visible
31 Oct 8.3 19:07:00 10° WNW 19:10:33 31° SW 19:10:56 30° SSW visible
01 Nov 6.7 17:31:02 10° WNW 17:34:56 80° NNE 17:39:02 10° ESE visible
01 Nov 9.0 19:12:10 10° W 19:15:05 19° SW 19:16:06 18° SSW visible
02 Nov 7.0 17:35:45 10° WNW 17:39:36 68° SW 17:43:41 10° SE visible
02 Nov 9.7 19:18:06 10° WSW 19:19:33 12° SW 19:21:02 10° SSW visible
03 Nov 7.9 17:40:32 10° WNW 17:44:14 42° SW 17:48:06 10° SSE visible
04 Nov 8.9 17:45:30 10° W 17:48:48 26° SW 17:52:13 10° SSE visible
